[[{"header":{"parameterUnit":"m.s-1","parameterCategory":2,"la1":30.2991,"la2":30.254,"lo1":-89.0895,"lo2":-89.0444,"dx":0.0017,"dy":0.0017,"nx":28,"ny":28,"refTime":"2022-12-02T09:00:00:Z","depth":"0","parameterNumber":2,"parameterNumberName":"U-component_of_CURRENTS"},"data":[0,0,0,0,0,0,0,0,0,0,0,0,0,0,0,0,0,0,0,0,0,0,0,0,0,0,0,0,0,0,0,0,0,0,0,0,0,0,0,0,0,0,0,0,0,0,0,0,0,0,0,0,0,0,0,0,0,0,0.2933,0.2932,0,0.2901,0.29,0.29,0.2901,0.2902,0.2903,0.2904,0.2922,0.2921,0.2921,0,0,0,0,0,0,0,0,0,0,0,0,0,0.2997,0.2995,0.2933,0.2932,0.2932,0.2901,0.29,0.2899,0.2901,0.2902,0.2903,0.2904,0.2922,0.2922,0.2921,0,0,0,0,0,0,0,0,0,0,0,0,0,0.2964,0.2995,0.2933,0.2933,0.2933,0.2901,0.29,0.2899,0.2901,0.2902,0.2903,0.2905,0.2922,0.2922,0.2921,0.2893,0,0,0.292,0.292,0,0,0,0,0,0,0,0,0.2965,0.2961,0.2933,0.2933,0.2933,0.291,0.293,0.2901,0.2901,0.2908,0.2904,0.2905,0.2924,0.2924,0.2908,0.2894,0.2895,0.292,0.2919,0.2919,0.2919,0,0,0,0,0,0,0,0.2968,0.2962,0.2916,0.2933,0.2933,0.2936,0.2932,0.2924,0.2907,0.2908,0.2909,0.2912,0.2924,0.2909,0.2909,0.2895,0.292,0.2919,0.2919,0.2919,0.2886,0.2886,0,0,0,0,0,0,0.2978,0.2964,0.2917,0.2915,0.2957,0.2934,0.2929,0.2913,0.2906,0.2907,0.2911,0.2912,0.2909,0.2909,0.291,0.2903,0.2919,0.2919,0.2919,0.2887,0.2886,0.2886,0,0,0,0,0,0,0.2979,0.2973,0.2918,0.2944,0.2938,0.2932,0.2913,0.2911,0.2903,0.2909,0.291,0.2906,0.291,0.291,0.2903,0.2903,0.2919,0.2918,0.2888,0.2887,0.2886,0.2873,0,0,0,0,0,0,0.2981,0.2973,0.2952,0.2944,0.2937,0.2897,0.2912,0.291,0.2905,0.2906,0.2905,0.2907,0.2911,0.2904,0.2903,0.2903,0.2918,0.2888,0.2887,0.2886,0.2874,0.2871,0.2869,0,0,0,0,0,0.2983,0.2941,0.2951,0.2945,0.2911,0.2896,0.2892,0.289,0.2904,0.2889,0.2894,0.2908,0.2897,0.2903,0.2902,0.2901,0.2889,0.2888,0.2886,0.2875,0.2872,0.2869,0,0,0,0,0,0,0.2955,0.2938,0.2948,0.2903,0.2905,0.2898,0.2879,0.289,0.2879,0.2886,0.2895,0.2896,0.2892,0.2893,0.29,0.2888,0.2897,0.2896,0.2889,0.2886,0.2884,0.2884,0.2917,0,0,0,0,0,0.2942,0.2908,0.291,0.2878,0.2878,0.2883,0.2874,0.2883,0.288,0.2876,0.2878,0.2882,0.2881,0.2882,0.2878,0.2866,0.2928,0.2867,0.2864,0.2863,0.2861,0.2918,0.2922,0.2881,0.2881,0.2881,0,0,0.2922,0.2912,0.2891,0.2871,0.2871,0.286,0.2879,0.287,0.2867,0.2881,0.2866,0.2872,0.2876,0.2866,0.2864,0.287,0.2923,0.2861,0.2859,0.2859,0.2917,0.2922,0.2926,0.288,0.2881,0.2881,0,0,0.2871,0.2861,0.282,0.2824,0.2828,0.2837,0.284,0.284,0.2844,0.2831,0.2849,0.2853,0.2839,0.2849,0.2851,0.2832,0.2908,0.2833,0.2823,0.2878,0.2883,0.2887,0.3049,0.3067,0.2833,0.2833,0.2833,0,0.2852,0.281,0.2809,0.2788,0.2796,0.283,0.2817,0.2817,0.2818,0.283,0.2825,0.283,0.2831,0.2841,0.283,0.2829,0.2908,0.2835,0.2878,0.2883,0.2888,0.3051,0.3072,0.2832,0.2832,0.2832,0.2832,0,0.2778,0.276,0.2743,0.2732,0.2736,0.2733,0.2756,0.2763,0.278,0.2793,0.2805,0.2801,0.2818,0.281,0.2808,0.2841,0.2909,0.2871,0.289,0.2892,0.3065,0.3087,0.2831,0.2831,0.2831,0.2832,0,0,0.2715,0.2692,0.2692,0.2708,0.2718,0.2728,0.2726,0.275,0.2784,0.2768,0.2805,0.2778,0.2806,0.281,0.2821,0.2847,0.2966,0.2868,0.2872,0.3041,0.3181,0.3383,0.3428,0.2935,0.2936,0.2938,0.3318,0,0.2672,0.2633,0.263,0.2636,0.264,0.2681,0.2693,0.2726,0.2755,0.2798,0.2807,0.2846,0.2801,0.2836,0.2845,0.2944,0.301,0.2872,0.3142,0.3153,0.334,0.3453,0.3335,0.3674,0.334,0.3343,0.3346,0,0.261,0.2608,0.259,0.2639,0.2646,0.2654,0.2727,0.2743,0.2805,0.2835,0.2861,0.2895,0.296,0.2904,0.3072,0.2993,0.3082,0.3141,0.3157,0.3357,0.3393,0.3601,0.3728,0.3499,0.338,0.3378,0.3375,0,0.2607,0.2592,0.2591,0.2602,0.2646,0.2664,0.2695,0.2755,0.2819,0.2884,0.2967,0.3003,0.3107,0.3153,0.3305,0.3197,0.3526,0.34,0.3675,0.3695,0.3655,0.3668,0.3593,0.3505,0.3505,0.3503,0.3502,0,0.2585,0.2605,0.2595,0.2616,0.2673,0.2678,0.2759,0.28,0.2882,0.3004,0.3007,0.3143,0.3166,0.3356,0.3399,0.3694,0.3631,0.3733,0.3805,0.3659,0.3668,0.3515,0.3396,0.3518,0.3515,0.3512,0.3509,0,0.2631,0.2594,0.2643,0.2671,0.2683,0.2744,0.2835,0.291,0.2971,0.3138,0.3184,0.3328,0.3601,0.3706,0.3888,0.3917,0.4003,0.4204,0.4106,0.4159,0.4149,0.4037,0.4045,0.3942,0.4551,0.4558,0.4564,0,0.2668,0.2678,0.2721,0.2774,0.2802,0.2868,0.2936,0.297,0.3063,0.3281,0.3394,0.3681,0.3901,0.4312,0.4431,0.466,0.4343,0.4661,0.4389,0.42,0.4123,0.3883,0.377,0.436,0.4364,0.4368,0.437,0,0.2804,0.2806,0.2857,0.2932,0.2997,0.3057,0.3138,0.3206,0.3294,0.3445,0.3694,0.3874,0.4307,0.4492,0.4822,0.4902,0.4406,0.4743,0.4498,0.3967,0.374,0.3658,0.4132,0.4399,0.4396,0.4394,0.4392,0.4391,0.2946,0.3014,0.3054,0.3132,0.3185,0.3224,0.326,0.3352,0.3483,0.3659,0.3863,0.4114,0.4352,0.4804,0.4888,0.4861,0.4745,0.4619,0.452,0.431,0.4112,0.4755,0.5119,0.512,0.5121,0.5122,0.5123,0,0.3138,0.3173,0.3255,0.3298,0.3344,0.3329,0.339,0.3399,0.3518,0.3758,0.3952,0.4191,0.4393,0.4537,0.4632,0.453,0.4277,0.4378,0.385,0.3763,0.4296,0.418,0.4412,0.4412,0.4412,0.4413,0.4413,0.4413,0.3253,0.3351,0.3352,0.3422,0.3435,0.3434,0.3438,0.3451,0.3567,0.3699,0.382,0.3928,0.4009,0.4108,0.4019,0.4,0.3608,0.3598,0.3509,0.3688,0.3693,0.3697,0.355,0.3646,0.3646,0.2784,0.2777,0.2772]},{"header":{"parameterUnit":"m.s-1","parameterCategory":2,"la1":30.2991,"la2":30.254,"lo1":-89.0895,"lo2":-89.0444,"dx":0.0017,"dy":0.0017,"nx":28,"ny":28,"refTime":"2022-12-02T09:00:00:Z","depth":"0","parameterNumber":3,"parameterNumberName":"V-component_of_CURRENTS"},"data":[0,0,0,0,0,0,0,0,0,0,0,0,0,0,0,0,0,0,0,0,0,0,0,0,0,0,0,0,0,0,0,0,0,0,0,0,0,0,0,0,0,0,0,0,0,0,0,0,0,0,0,0,0,0,0,0,0,0,-0.0966,-0.0966,0,-0.1002,-0.1002,-0.1003,-0.1026,-0.1026,-0.1026,-0.1026,-0.1087,-0.1088,-0.109,0,0,0,0,0,0,0,0,0,0,0,0,0,-0.0992,-0.0991,-0.0966,-0.0966,-0.0967,-0.1002,-0.1002,-0.1003,-0.1026,-0.1026,-0.1026,-0.1027,-0.1086,-0.1088,-0.109,0,0,0,0,0,0,0,0,0,0,0,0,0,-0.1,-0.0991,-0.0966,-0.0982,-0.0984,-0.1002,-0.1002,-0.1003,-0.1026,-0.1026,-0.1026,-0.1027,-0.1086,-0.1088,-0.109,-0.1101,0,0,-0.1097,-0.1098,0,0,0,0,0,0,0,0,-0.0999,-0.0999,-0.098,-0.0981,-0.0983,-0.1009,-0.1034,-0.1037,-0.1026,-0.1011,-0.1026,-0.1027,-0.1063,-0.1067,-0.1074,-0.1103,-0.1106,-0.1097,-0.1099,-0.11,-0.11,0,0,0,0,0,0,0,-0.0999,-0.0998,-0.0981,-0.098,-0.0982,-0.1013,-0.1014,-0.1035,-0.1036,-0.1012,-0.1014,-0.1017,-0.1064,-0.1071,-0.1075,-0.1107,-0.1097,-0.1099,-0.1101,-0.1102,-0.1157,-0.1157,0,0,0,0,0,0,-0.0989,-0.0997,-0.0979,-0.0982,-0.0992,-0.1012,-0.1013,-0.1001,-0.1035,-0.104,-0.1017,-0.1018,-0.1067,-0.1073,-0.1077,-0.1084,-0.11,-0.1102,-0.1103,-0.1157,-0.1157,-0.1157,0,0,0,0,0,0,-0.0989,-0.0986,-0.0978,-0.0991,-0.0992,-0.1011,-0.0998,-0.1002,-0.101,-0.1039,-0.1044,-0.1021,-0.1068,-0.1074,-0.1093,-0.1087,-0.1103,-0.1105,-0.1157,-0.1157,-0.1157,-0.1103,0,0,0,0,0,0,-0.0989,-0.0986,-0.0977,-0.0989,-0.0991,-0.0982,-0.0998,-0.1002,-0.1011,-0.1013,-0.1044,-0.105,-0.1068,-0.1089,-0.1095,-0.1091,-0.1107,-0.1156,-0.1157,-0.1157,-0.1105,-0.1102,-0.1099,0,0,0,0,0,-0.099,-0.0975,-0.0976,-0.0975,-0.0976,-0.0982,-0.0985,-0.1001,-0.1011,-0.101,-0.1032,-0.1049,-0.1095,-0.1091,-0.1098,-0.1094,-0.1156,-0.1157,-0.1157,-0.1106,-0.1102,-0.1099,0,0,0,0,0,0,-0.0995,-0.0976,-0.0978,-0.0961,-0.0969,-0.0986,-0.0985,-0.1,-0.1017,-0.1018,-0.1049,-0.1056,-0.107,-0.1092,-0.1087,-0.1112,-0.113,-0.1131,-0.1089,-0.1085,-0.1082,-0.1051,-0.1108,0,0,0,0,0,-0.0987,-0.0965,-0.0966,-0.0956,-0.0951,-0.0968,-0.0974,-0.0984,-0.1,-0.1008,-0.1031,-0.1056,-0.1077,-0.1088,-0.111,-0.1122,-0.112,-0.1127,-0.1123,-0.112,-0.1101,-0.1113,-0.1108,-0.1158,-0.1158,-0.1158,0,0,-0.0988,-0.0977,-0.0965,-0.0955,-0.0958,-0.0943,-0.0972,-0.0973,-0.0971,-0.1012,-0.1016,-0.1046,-0.1079,-0.109,-0.11,-0.1107,-0.1101,-0.1121,-0.1118,-0.11,-0.1113,-0.1108,-0.1103,-0.1158,-0.1158,-0.1158,0,0,-0.0972,-0.0962,-0.0933,-0.0926,-0.0923,-0.0932,-0.093,-0.0942,-0.0954,-0.0963,-0.0993,-0.1018,-0.1048,-0.107,-0.1085,-0.108,-0.1084,-0.1091,-0.1049,-0.1061,-0.1056,-0.1052,-0.1016,-0.1009,-0.109,-0.1089,-0.1089,0,-0.0982,-0.0931,-0.0932,-0.0902,-0.0885,-0.092,-0.0887,-0.091,-0.0933,-0.0933,-0.0956,-0.0996,-0.1035,-0.1044,-0.1045,-0.1071,-0.106,-0.1058,-0.1054,-0.1051,-0.1048,-0.1012,-0.1005,-0.1087,-0.1087,-0.1087,-0.1088,0,-0.0932,-0.0895,-0.0878,-0.084,-0.0831,-0.0811,-0.0825,-0.0832,-0.0853,-0.0873,-0.0888,-0.0941,-0.0959,-0.0986,-0.1014,-0.1013,-0.1003,-0.1048,-0.1057,-0.1039,-0.1002,-0.0996,-0.1083,-0.1084,-0.1085,-0.1086,0,0,-0.0954,-0.0858,-0.0853,-0.0796,-0.0787,-0.0762,-0.0765,-0.0759,-0.0731,-0.0793,-0.0761,-0.0838,-0.0867,-0.0887,-0.0934,-0.0954,-0.0929,-0.0984,-0.0986,-0.0933,-0.0909,-0.0758,-0.0737,-0.0971,-0.097,-0.097,-0.0881,0,-0.0918,-0.0805,-0.0792,-0.0707,-0.0641,-0.066,-0.0642,-0.0649,-0.0667,-0.0652,-0.0733,-0.0723,-0.0831,-0.0817,-0.0868,-0.0913,-0.0914,-0.0946,-0.0946,-0.0945,-0.0803,-0.0726,-0.0623,-0.0523,-0.0875,-0.0874,-0.0874,0,-0.087,-0.0793,-0.0671,-0.0573,-0.055,-0.0516,-0.0457,-0.045,-0.0468,-0.0477,-0.0517,-0.0569,-0.062,-0.0699,-0.0782,-0.0794,-0.0837,-0.0878,-0.0877,-0.0748,-0.0782,-0.0606,-0.0499,-0.0782,-0.0864,-0.0865,-0.0866,0,-0.081,-0.0713,-0.0592,-0.0558,-0.0465,-0.0422,-0.0395,-0.0386,-0.0338,-0.0349,-0.0294,-0.0411,-0.039,-0.0525,-0.0627,-0.07,-0.0675,-0.0794,-0.0692,-0.0682,-0.0595,-0.0576,-0.0746,-0.0816,-0.0816,-0.0816,-0.0817,0,-0.0744,-0.0653,-0.0541,-0.0462,-0.0327,-0.0318,-0.0199,-0.019,-0.0152,-0.0046,-0.0184,-0.0096,-0.0339,-0.0368,-0.0536,-0.0551,-0.0607,-0.0637,-0.0638,-0.0569,-0.055,-0.0794,-0.0948,-0.0813,-0.0814,-0.0815,-0.0815,0,-0.0647,-0.0592,-0.0428,-0.0307,-0.0269,-0.0157,-0.0041,0.0043,0.0058,0.0201,0.0219,0.0175,0.0155,-0.0049,-0.0194,-0.0341,-0.0505,-0.0419,-0.0285,-0.027,-0.0469,-0.0619,-0.063,-0.0717,-0.0319,-0.0315,-0.0311,0,-0.0569,-0.046,-0.0276,-0.0175,-0.0103,0.0034,0.0131,0.0161,0.0262,0.0398,0.0496,0.0529,0.0617,0.0471,0.0221,0.0026,-0.0269,-0.0023,-0.016,-0.0413,-0.0586,-0.0677,-0.0761,-0.003,-0.0024,-0.002,-0.0016,0,-0.0378,-0.0302,-0.0158,0.003,0.0162,0.0308,0.0444,0.0552,0.0624,0.0769,0.0975,0.1068,0.1,0.0901,0.0657,0.046,-0.0154,0.0072,-0.0256,-0.0391,-0.0436,-0.0541,-0.0147,0.0026,0.0022,0.0019,0.0016,0.0015,-0.0211,-0.0077,0.0097,0.0264,0.0407,0.057,0.0701,0.0857,0.1064,0.1324,0.1382,0.1654,0.1431,0.1141,0.0823,0.0269,0.0206,0.0046,-0.0114,-0.0184,-0.0266,0.0276,0.0483,0.0481,0.048,0.0479,0.0478,0,-0.0005,0.012,0.0304,0.0504,0.0661,0.0687,0.0902,0.1046,0.1321,0.1677,0.1916,0.2111,0.1772,0.129,0.0589,0.0134,-0.0107,-0.0178,-0.0395,-0.0479,-0.0054,-0.0048,0.0134,0.0134,0.0135,0.0135,0.0135,0.0136,0.0119,0.0336,0.0401,0.0678,0.08,0.1009,0.1131,0.1373,0.166,0.2162,0.2502,0.2731,0.2384,0.0956,-0.0073,-0.0328,-0.0764,-0.0706,-0.099,-0.0856,-0.0854,-0.0852,-0.089,-0.0887,-0.0888,-0.1346,-0.1351,-0.1355]}],[{"header":{"parameterUnit":"m.s-1","parameterCategory":2,"la1":30.2991,"la2":30.254,"lo1":-89.0895,"lo2":-89.0444,"dx":0.0017,"dy":0.0017,"nx":28,"ny":28,"refTime":"2022-12-02T09:00:00:Z","depth":"2","parameterNumber":2,"parameterNumberName":"U-component_of_CURRENTS"},"data":[0,0,0,0,0,0,0,0,0,0,0,0,0,0,0,0,0,0,0,0,0,0,0,0,0,0,0,0,0,0,0,0,0,0,0,0,0,0,0,0,0,0,0,0,0,0,0,0,0,0,0,0,0,0,0,0,0,0,0.3066,0.3067,0,0.3131,0.3131,0.3131,0.3134,0.3133,0.3133,0.3133,0.3118,0.3118,0.3118,0,0,0,0,0,0,0,0,0,0,0,0,0,0.2958,0.2959,0.3066,0.3067,0.3069,0.3131,0.3131,0.3131,0.3134,0.3133,0.3133,0.3133,0.3119,0.3118,0.3118,0,0,0,0,0,0,0,0,0,0,0,0,0,0.3005,0.296,0.3066,0.3083,0.3085,0.3131,0.3131,0.3131,0.3134,0.3133,0.3133,0.3133,0.3119,0.3118,0.3118,0.3119,0,0,0.3117,0.3116,0,0,0,0,0,0,0,0,0.3002,0.3008,0.3079,0.3082,0.3085,0.313,0.3088,0.3126,0.3134,0.3108,0.3133,0.3133,0.312,0.3119,0.3123,0.3119,0.3118,0.3117,0.3116,0.3116,0.3116,0,0,0,0,0,0,0,0.2999,0.3006,0.3084,0.308,0.3084,0.3092,0.3098,0.3095,0.3107,0.311,0.3112,0.3131,0.312,0.3123,0.3122,0.3118,0.3117,0.3116,0.3116,0.3116,0.3149,0.3151,0,0,0,0,0,0,0.3005,0.3003,0.3082,0.3087,0.305,0.3095,0.3101,0.311,0.3109,0.3111,0.3131,0.3131,0.3124,0.3123,0.3122,0.3146,0.3116,0.3116,0.3116,0.3148,0.315,0.3151,0,0,0,0,0,0,0.3002,0.3011,0.308,0.3052,0.3063,0.3098,0.3107,0.3111,0.3123,0.3127,0.3126,0.314,0.3124,0.3122,0.3129,0.3144,0.3116,0.3115,0.3147,0.3149,0.315,0.3179,0,0,0,0,0,0,0.2999,0.3009,0.3017,0.3053,0.3065,0.3102,0.3109,0.3113,0.3138,0.3138,0.3134,0.3133,0.3124,0.3129,0.3128,0.3143,0.3115,0.3146,0.3148,0.315,0.3177,0.3182,0.3186,0,0,0,0,0,0.2994,0.2992,0.3016,0.3027,0.3073,0.3102,0.3108,0.3128,0.3138,0.3137,0.3146,0.3133,0.3142,0.313,0.3128,0.3144,0.3145,0.3147,0.315,0.3175,0.3181,0.3186,0,0,0,0,0,0,0.2936,0.2995,0.3021,0.3034,0.3071,0.3105,0.3113,0.3134,0.3141,0.3143,0.3142,0.314,0.3154,0.3147,0.3134,0.3162,0.3144,0.3146,0.3164,0.3169,0.3174,0.3186,0.3115,0,0,0,0,0,0.2935,0.2956,0.3009,0.3022,0.3042,0.3083,0.31,0.3118,0.3136,0.314,0.3139,0.3147,0.3164,0.3164,0.3167,0.3177,0.323,0.3189,0.3194,0.3198,0.3209,0.3315,0.333,0.3159,0.3159,0.3159,0,0,0.2917,0.2954,0.2965,0.3014,0.3044,0.3066,0.309,0.3117,0.3134,0.3137,0.3143,0.3159,0.3171,0.3186,0.3192,0.3181,0.3277,0.3201,0.3204,0.3213,0.3319,0.3336,0.3351,0.3161,0.3161,0.316,0,0,0.2883,0.2927,0.293,0.2967,0.3024,0.3055,0.3066,0.3105,0.3121,0.314,0.3157,0.3189,0.3187,0.3215,0.3228,0.3262,0.3299,0.3257,0.3286,0.3389,0.3404,0.3418,0.3522,0.3545,0.3257,0.3257,0.3257,0,0.2854,0.2879,0.2934,0.2951,0.2983,0.305,0.306,0.3092,0.3124,0.3151,0.3141,0.3208,0.3208,0.327,0.3279,0.3273,0.334,0.3262,0.3397,0.3412,0.3426,0.3528,0.3553,0.3259,0.3259,0.3258,0.3258,0,0.2831,0.2857,0.2863,0.2916,0.2951,0.2975,0.304,0.3071,0.3106,0.3146,0.321,0.3235,0.3282,0.3288,0.3289,0.3388,0.3408,0.3394,0.3385,0.3445,0.3549,0.3575,0.3261,0.3261,0.326,0.326,0,0,0.2744,0.2828,0.2829,0.2863,0.2941,0.2968,0.3014,0.3083,0.3139,0.3178,0.3251,0.329,0.3333,0.3353,0.3376,0.3456,0.3607,0.3465,0.3469,0.3571,0.3854,0.3553,0.3552,0.3624,0.3628,0.3631,0.3892,0,0.2707,0.2735,0.2785,0.2822,0.2852,0.2938,0.2981,0.3059,0.3131,0.3216,0.3294,0.3364,0.3351,0.3394,0.3473,0.3581,0.3675,0.3539,0.3777,0.3784,0.3511,0.357,0.3283,0.3462,0.3917,0.3922,0.3925,0,0.2671,0.27,0.2725,0.2812,0.2831,0.2863,0.2982,0.3027,0.3172,0.3233,0.3338,0.3412,0.3547,0.3521,0.3754,0.3673,0.3767,0.3843,0.3854,0.3577,0.3528,0.3472,0.3492,0.3968,0.3965,0.3962,0.3959,0,0.2615,0.2663,0.2689,0.2719,0.2817,0.285,0.2903,0.3033,0.3109,0.3264,0.3361,0.3508,0.362,0.3757,0.3894,0.3854,0.4151,0.4115,0.3944,0.3927,0.3726,0.3678,0.4289,0.4289,0.4288,0.4288,0.4287,0,0.258,0.2602,0.2668,0.2693,0.2735,0.2812,0.2895,0.2973,0.3126,0.3236,0.3371,0.3493,0.369,0.3867,0.3962,0.4019,0.4216,0.3961,0.3966,0.3721,0.3673,0.4133,0.4111,0.4298,0.4295,0.4293,0.4292,0,0.2539,0.2581,0.2618,0.2694,0.272,0.2753,0.2885,0.2953,0.3104,0.3263,0.3325,0.3553,0.3724,0.39,0.4141,0.4083,0.4183,0.4161,0.3841,0.3794,0.3887,0.3865,0.3994,0.3985,0.3978,0.3972,0.3966,0,0.2528,0.2541,0.2607,0.2622,0.2659,0.2726,0.2778,0.2923,0.301,0.3281,0.3353,0.3574,0.3641,0.3848,0.3825,0.3901,0.4079,0.3654,0.3457,0.3861,0.3856,0.3844,0.3832,0.3268,0.3258,0.325,0.3243,0,0.2488,0.2511,0.2526,0.2568,0.261,0.2672,0.2759,0.2824,0.3007,0.3119,0.3265,0.3332,0.3471,0.335,0.339,0.3395,0.3586,0.3463,0.4068,0.3297,0.3171,0.3166,0.3181,0.3167,0.3174,0.318,0.3184,0.3187,0.2437,0.2433,0.2449,0.2488,0.2529,0.2573,0.2584,0.2656,0.2725,0.2826,0.301,0.3001,0.3062,0.2881,0.2844,0.2827,0.3035,0.2953,0.2985,0.3025,0.2803,0.266,0.2525,0.2528,0.2532,0.2534,0.2537,0,0.2351,0.2356,0.2372,0.2385,0.238,0.2467,0.2532,0.2478,0.2438,0.2548,0.2565,0.236,0.2257,0.239,0.2203,0.2138,0.2188,0.2094,0.2189,0.2262,0.2328,0.2076,0.1604,0.1601,0.1599,0.1597,0,0,0.2295,0.2258,0.2271,0.2223,0.2245,0.2209,0.2215,0.2089,0.2095,0.199,0.1979,0.2115,0.2253,0.1896,0.1835,0.1708,0.1979,0.1633,0.2378,0.256,0.2624,0.2808,0.2496,0,0,0,0,0]},{"header":{"parameterUnit":"m.s-1","parameterCategory":2,"la1":30.2991,"la2":30.254,"lo1":-89.0895,"lo2":-89.0444,"dx":0.0017,"dy":0.0017,"nx":28,"ny":28,"refTime":"2022-12-02T09:00:00:Z","depth":"2","parameterNumber":3,"parameterNumberName":"V-component_of_CURRENTS"},"data":[0,0,0,0,0,0,0,0,0,0,0,0,0,0,0,0,0,0,0,0,0,0,0,0,0,0,0,0,0,0,0,0,0,0,0,0,0,0,0,0,0,0,0,0,0,0,0,0,0,0,0,0,0,0,0,0,0,0,0.0605,0.0604,0,0.0477,0.0475,0.0473,0.0375,0.0374,0.0374,0.0374,0.022,0.0216,0.0213,0,0,0,0,0,0,0,0,0,0,0,0,0,0.0658,0.0658,0.0605,0.0604,0.0603,0.0477,0.0475,0.0473,0.0375,0.0374,0.0374,0.0373,0.0221,0.0217,0.0212,0,0,0,0,0,0,0,0,0,0,0,0,0,0.0588,0.0658,0.0605,0.0543,0.0536,0.0478,0.0475,0.0472,0.0375,0.0374,0.0374,0.0373,0.0222,0.0217,0.0212,0.0191,0,0,0.0195,0.0192,0,0,0,0,0,0,0,0,0.0592,0.0586,0.0553,0.0547,0.054,0.0446,0.0437,0.0378,0.0375,0.0431,0.0374,0.0373,0.0297,0.0285,0.0255,0.0184,0.0177,0.0194,0.0191,0.0188,0.0187,0,0,0,0,0,0,0,0.0598,0.059,0.0549,0.0552,0.0544,0.0485,0.0474,0.0425,0.0365,0.0426,0.042,0.0414,0.0292,0.0261,0.0251,0.0175,0.0194,0.0189,0.0186,0.0184,0.0084,0.0085,0,0,0,0,0,0,0.063,0.0596,0.0553,0.0546,0.0571,0.0485,0.0473,0.0472,0.0366,0.035,0.0415,0.041,0.0271,0.0258,0.0245,0.0233,0.0189,0.0183,0.018,0.0084,0.0084,0.0085,0,0,0,0,0,0,0.0632,0.0628,0.0559,0.0571,0.0559,0.0486,0.0485,0.047,0.0442,0.0358,0.0341,0.0403,0.027,0.0253,0.0207,0.0225,0.0181,0.0176,0.0083,0.0084,0.0085,0.0196,0,0,0,0,0,0,0.0634,0.0629,0.0634,0.0574,0.056,0.0537,0.0486,0.0468,0.0442,0.0434,0.0343,0.0327,0.0268,0.0216,0.0202,0.0217,0.0172,0.0082,0.0083,0.0084,0.0191,0.02,0.0208,0,0,0,0,0,0.0636,0.0656,0.0635,0.063,0.0571,0.0539,0.0525,0.0467,0.0443,0.0437,0.0374,0.033,0.0214,0.0212,0.0195,0.0209,0.0081,0.0083,0.0084,0.0187,0.0199,0.0208,0,0,0,0,0,0,0.0682,0.0647,0.0623,0.063,0.0593,0.0524,0.0517,0.0478,0.0423,0.0416,0.0333,0.0313,0.0279,0.0231,0.0231,0.0184,0.0143,0.0141,0.0227,0.0237,0.0245,0.0281,0.0167,0,0,0,0,0,0.0697,0.0699,0.0654,0.0658,0.0648,0.0584,0.0562,0.0526,0.0473,0.0447,0.0383,0.0321,0.0271,0.0245,0.0189,0.0165,0.0137,0.0165,0.0174,0.0181,0.0199,0.0178,0.0187,0.009,0.009,0.009,0,0,0.0717,0.0696,0.0698,0.0667,0.0633,0.0625,0.0568,0.0549,0.0538,0.0441,0.0407,0.0345,0.027,0.0239,0.0221,0.0202,0.0192,0.0183,0.019,0.0204,0.0181,0.019,0.0199,0.0091,0.0091,0.0091,0,0,0.0757,0.0742,0.0754,0.0732,0.0695,0.0661,0.0665,0.0605,0.0576,0.0538,0.0469,0.0429,0.0343,0.0301,0.0267,0.0293,0.0236,0.027,0.0343,0.0324,0.0332,0.0339,0.0316,0.032,0.0278,0.0278,0.0278,0,0.0778,0.0785,0.0752,0.0754,0.0745,0.0688,0.0698,0.0665,0.0594,0.0582,0.0545,0.0442,0.0378,0.0353,0.0356,0.0316,0.029,0.0312,0.0337,0.0343,0.0349,0.0323,0.0326,0.0283,0.0283,0.0282,0.0282,0,0.0818,0.0823,0.0832,0.0818,0.0808,0.0808,0.077,0.0754,0.0715,0.0677,0.0642,0.0556,0.0501,0.0473,0.0417,0.0423,0.0388,0.035,0.0318,0.0366,0.0335,0.0336,0.0291,0.0289,0.0288,0.0286,0,0,0.0861,0.0861,0.0861,0.0867,0.0842,0.0839,0.0843,0.0827,0.0839,0.0771,0.0783,0.0692,0.0651,0.0612,0.0543,0.0522,0.0529,0.0459,0.0455,0.0449,0.0484,0.0326,0.0312,0.0494,0.0495,0.0495,0.0448,0,0.0894,0.0922,0.0912,0.0939,0.095,0.092,0.0932,0.0914,0.0889,0.0888,0.082,0.0795,0.0703,0.0684,0.0652,0.0567,0.0538,0.0546,0.0427,0.0424,0.0289,0.031,0.0312,0.0258,0.0449,0.0449,0.0449,0,0.0924,0.0941,0.0976,0.1001,0.1006,0.1015,0.1034,0.1039,0.1032,0.1017,0.0991,0.0934,0.09,0.0815,0.0709,0.0718,0.0612,0.0539,0.0534,0.0351,0.0268,0.0238,0.0252,0.045,0.045,0.045,0.045,0,0.0953,0.0983,0.1015,0.1019,0.104,0.1055,0.1068,0.1072,0.111,0.1104,0.1142,0.1066,0.1051,0.0929,0.0774,0.0743,0.0661,0.0595,0.0353,0.0341,0.0301,0.0282,0.0515,0.0515,0.0515,0.0515,0.0515,0,0.0981,0.1005,0.103,0.1045,0.1102,0.1097,0.1165,0.1165,0.1214,0.1308,0.1215,0.1278,0.1079,0.1006,0.084,0.0609,0.0708,0.037,0.0317,0.0334,0.032,0.0451,0.0445,0.0513,0.0514,0.0514,0.0514,0,0.0995,0.1009,0.1054,0.1094,0.1112,0.1151,0.1242,0.131,0.1333,0.1461,0.1476,0.1441,0.1317,0.1103,0.0906,0.0685,0.0489,0.0377,0.0401,0.0347,0.0162,0.0162,0.0088,0.0082,0.0077,0.0073,0.0069,0,0.0999,0.1023,0.1094,0.1141,0.1159,0.1228,0.1303,0.1357,0.1462,0.1592,0.1683,0.1584,0.1499,0.1117,0.0747,0.038,0.0408,0.0129,0.0033,0.0162,0.0119,0.0126,0.0133,0.0044,0.004,0.0037,0.0035,0,0.1017,0.1044,0.1095,0.1202,0.1281,0.1399,0.1515,0.163,0.1752,0.1841,0.1969,0.1889,0.1471,0.1049,0.0487,0.0265,0.0173,0.0047,0.0228,0.0116,0.0106,0.0067,0.0078,0.001,0.0012,0.0014,0.0015,0.0016,0.1033,0.1085,0.1172,0.1279,0.139,0.1583,0.1722,0.1832,0.2006,0.2109,0.2083,0.1887,0.1447,0.0612,0.0282,-0.0071,-0.0087,-0.0228,-0.0211,-0.0193,-0.0226,-0.0248,-0.0415,-0.0415,-0.0415,-0.0415,-0.0415,0,0.1063,0.114,0.1248,0.141,0.1578,0.1621,0.1883,0.1999,0.2181,0.2128,0.2071,0.1575,0.1038,0.0618,0.0024,-0.0367,-0.0312,-0.0432,-0.0265,-0.0243,-0.0222,-0.0248,-0.0447,-0.0447,-0.0447,-0.0447,0,0,0.1078,0.1194,0.1273,0.1552,0.1682,0.195,0.2125,0.218,0.219,0.209,0.1887,0.1535,0.104,0.061,0.0157,-0.0127,-0.0083,-0.0178,-0.0132,0.0139,0.0166,-0.0109,-0.0128,0,0,0,0,0]}],[{"header":{"parameterUnit":"m.s-1","parameterCategory":2,"la1":30.2991,"la2":30.254,"lo1":-89.0895,"lo2":-89.0444,"dx":0.0017,"dy":0.0017,"nx":28,"ny":28,"refTime":"2022-12-02T09:00:00:Z","depth":"4","parameterNumber":2,"parameterNumberName":"U-component_of_CURRENTS"},"data":[0,0,0,0,0,0,0,0,0,0,0,0,0,0,0,0,0,0,0,0,0,0,0,0,0,0,0,0,0,0,0,0,0,0,0,0,0,0,0,0,0,0,0,0,0,0,0,0,0,0,0,0,0,0,0,0,0,0,0.084,0.0842,0,0.0957,0.0958,0.0959,0.1013,0.1013,0.1014,0.1015,0.1099,0.11,0.1102,0,0,0,0,0,0,0,0,0,0,0,0,0,0.0774,0.0773,0.084,0.0842,0.0844,0.0957,0.0958,0.0959,0.1012,0.1013,0.1014,0.1015,0.1098,0.11,0.1102,0,0,0,0,0,0,0,0,0,0,0,0,0,0.0829,0.0773,0.0839,0.0891,0.0898,0.0957,0.0958,0.0959,0.1012,0.1013,0.1014,0.1015,0.1098,0.11,0.1102,0.1095,0,0,0.111,0.1111,0,0,0,0,0,0,0,0,0.0825,0.083,0.0881,0.0888,0.0896,0.0979,0.0967,0.1006,0.1012,0.0959,0.1015,0.1016,0.1061,0.1066,0.1074,0.1099,0.1103,0.111,0.1111,0.1112,0.1113,0,0,0,0,0,0,0,0.0821,0.0826,0.0877,0.0884,0.0893,0.0948,0.0955,0.0974,0.0995,0.0964,0.097,0.0998,0.1063,0.1071,0.1076,0.1104,0.111,0.1112,0.1113,0.1114,0.1233,0.1235,0,0,0,0,0,0,0.0818,0.0821,0.0874,0.0882,0.0873,0.0949,0.0956,0.0944,0.0996,0.1008,0.0997,0.1,0.1067,0.1073,0.1079,0.119,0.1112,0.1114,0.1116,0.1231,0.1234,0.1235,0,0,0,0,0,0,0.0815,0.0819,0.0869,0.0864,0.0876,0.0949,0.0935,0.0946,0.0991,0.1023,0.1032,0.1035,0.1068,0.1076,0.1137,0.119,0.1116,0.1118,0.1229,0.1232,0.1235,0.1338,0,0,0,0,0,0,0.0812,0.0817,0.0827,0.0862,0.0876,0.0926,0.0935,0.0948,0.1008,0.1014,0.1058,0.1065,0.1069,0.1134,0.114,0.1192,0.112,0.1227,0.1231,0.1234,0.1332,0.1344,0.1353,0,0,0,0,0,0.0808,0.0831,0.0825,0.0835,0.0879,0.0928,0.094,0.0991,0.1009,0.1032,0.1073,0.1066,0.1158,0.1137,0.1144,0.1198,0.1226,0.123,0.1233,0.1327,0.1341,0.1353,0,0,0,0,0,0,0.0813,0.084,0.0835,0.0863,0.0898,0.0942,0.0991,0.1009,0.1057,0.1072,0.109,0.11,0.1169,0.1165,0.1142,0.1239,0.119,0.1195,0.1259,0.1272,0.1282,0.1244,0.1121,0,0,0,0,0,0.0813,0.0827,0.0859,0.0879,0.0908,0.0947,0.0983,0.1005,0.1049,0.1072,0.1098,0.1135,0.1182,0.1215,0.1235,0.1294,0.1254,0.133,0.1341,0.135,0.1323,0.1369,0.1382,0.1248,0.1248,0.1248,0,0,0.0824,0.0839,0.0849,0.0882,0.0918,0.0955,0.097,0.1029,0.1058,0.1073,0.1131,0.1168,0.1203,0.1269,0.13,0.1282,0.1355,0.1355,0.1363,0.1329,0.1375,0.1388,0.1399,0.1251,0.1251,0.125,0,0,0.0843,0.0861,0.088,0.0911,0.0967,0.0991,0.1013,0.106,0.1091,0.1145,0.1172,0.1235,0.1295,0.1333,0.1363,0.144,0.1404,0.1464,0.1502,0.155,0.1561,0.157,0.1484,0.1485,0.148,0.148,0.148,0,0.0854,0.0866,0.0899,0.0927,0.0971,0.1008,0.1047,0.1078,0.1133,0.1163,0.1174,0.128,0.1318,0.1408,0.1449,0.1464,0.1446,0.1459,0.1564,0.1573,0.1581,0.1491,0.149,0.1486,0.1485,0.1485,0.1484,0,0.0868,0.0902,0.093,0.0961,0.1011,0.1055,0.1104,0.1143,0.1187,0.1213,0.13,0.1352,0.1413,0.1457,0.1487,0.1577,0.1525,0.1568,0.1532,0.1601,0.15,0.1498,0.1494,0.1492,0.149,0.1489,0,0,0.0835,0.0917,0.0934,0.0964,0.1035,0.1076,0.1137,0.1201,0.1255,0.1296,0.137,0.1457,0.1481,0.1513,0.1563,0.1619,0.1662,0.1633,0.1633,0.1542,0.1683,0.1671,0.1665,0.1757,0.1758,0.1759,0.1571,0,0.0838,0.0894,0.0943,0.1018,0.106,0.1125,0.118,0.1242,0.1308,0.1382,0.1435,0.1531,0.1506,0.1588,0.1621,0.1697,0.167,0.1701,0.1631,0.1625,0.1608,0.167,0.1765,0.1569,0.1568,0.1568,0.1567,0,0.0834,0.0878,0.0945,0.1052,0.1082,0.1137,0.1255,0.1313,0.1413,0.1469,0.1536,0.1587,0.1671,0.1663,0.1688,0.1726,0.1675,0.1686,0.1681,0.1628,0.1613,0.1499,0.1563,0.1563,0.1563,0.1564,0.1564,0,0.0791,0.089,0.0947,0.0979,0.1091,0.1155,0.1237,0.1345,0.1411,0.1556,0.1618,0.1684,0.1754,0.1745,0.1755,0.1745,0.1768,0.1752,0.1625,0.1617,0.1633,0.1626,0.1692,0.1692,0.1692,0.1693,0.1693,0,0.0767,0.0822,0.0941,0.0971,0.1059,0.1162,0.1275,0.1361,0.1495,0.157,0.1666,0.1721,0.18,0.1823,0.1775,0.1709,0.1759,0.1608,0.16,0.167,0.167,0.1626,0.1621,0.1686,0.1687,0.1689,0.169,0,0.0712,0.0781,0.0854,0.099,0.1039,0.1117,0.1294,0.137,0.1507,0.1615,0.1674,0.1778,0.182,0.1829,0.184,0.1737,0.1701,0.1632,0.1645,0.1642,0.1462,0.1465,0.1422,0.142,0.1419,0.1418,0.1418,0,0.0685,0.0711,0.0851,0.0901,0.0975,0.1105,0.1186,0.136,0.1444,0.1616,0.1653,0.1756,0.1794,0.1744,0.178,0.1669,0.1635,0.155,0.1532,0.1454,0.1449,0.1453,0.1457,0.1416,0.1416,0.1415,0.1415,0,0.0633,0.0686,0.0749,0.0841,0.0942,0.104,0.1184,0.1235,0.142,0.154,0.1616,0.1647,0.1672,0.1684,0.1654,0.1565,0.1615,0.1536,0.1534,0.1516,0.1446,0.1444,0.1449,0.1411,0.1412,0.1412,0.1412,0,0.0599,0.0625,0.0701,0.0785,0.0881,0.0956,0.1048,0.1163,0.1266,0.1467,0.1479,0.157,0.1667,0.1623,0.1596,0.1559,0.1471,0.1378,0.1383,0.1387,0.1481,0.1394,0.1327,0,0,0,0,0,0.0561,0.0584,0.0642,0.0732,0.0815,0.0874,0.1026,0.1121,0.1291,0.1315,0.1404,0.1432,0.1439,0.1484,0.142,0.1515,0.145,0.1431,0.134,0.139,0.1394,0.1518,0,0,0,0,0,0,0.0541,0.0584,0.0614,0.0659,0.07,0.0795,0.0884,0.1002,0.1039,0.1203,0.122,0.1331,0.1356,0.1449,0.1385,0.1392,0.1302,0.149,0.1485,0.1387,0.1391,0.1395,0.1523,0,0,0,0,0]},{"header":{"parameterUnit":"m.s-1","parameterCategory":2,"la1":30.2991,"la2":30.254,"lo1":-89.0895,"lo2":-89.0444,"dx":0.0017,"dy":0.0017,"nx":28,"ny":28,"refTime":"2022-12-02T09:00:00:Z","depth":"4","parameterNumber":3,"parameterNumberName":"V-component_of_CURRENTS"},"data":[0,0,0,0,0,0,0,0,0,0,0,0,0,0,0,0,0,0,0,0,0,0,0,0,0,0,0,0,0,0,0,0,0,0,0,0,0,0,0,0,0,0,0,0,0,0,0,0,0,0,0,0,0,0,0,0,0,0,0.0285,0.0284,0,0.0239,0.0239,0.0238,0.0216,0.0216,0.0216,0.0216,0.0126,0.0123,0.0121,0,0,0,0,0,0,0,0,0,0,0,0,0,0.0328,0.0328,0.0285,0.0284,0.0284,0.024,0.0239,0.0238,0.0216,0.0216,0.0216,0.0216,0.0126,0.0123,0.012,0,0,0,0,0,0,0,0,0,0,0,0,0,0.0297,0.0327,0.0285,0.0269,0.0267,0.024,0.0239,0.0238,0.0216,0.0216,0.0216,0.0216,0.0127,0.0124,0.012,0.0092,0,0,0.0108,0.0107,0,0,0,0,0,0,0,0,0.0299,0.0296,0.0272,0.027,0.0268,0.0235,0.0221,0.0187,0.0216,0.0234,0.0216,0.0216,0.0159,0.0152,0.0142,0.0088,0.0084,0.0108,0.0106,0.0104,0.0103,0,0,0,0,0,0,0,0.0301,0.0297,0.0265,0.0271,0.0269,0.0256,0.0251,0.0214,0.0194,0.0232,0.0231,0.0228,0.0157,0.0146,0.0139,0.0083,0.0108,0.0105,0.0102,0.0101,-0.0003,-0.0004,0,0,0,0,0,0,0.0311,0.03,0.0267,0.0264,0.0286,0.0255,0.025,0.0244,0.0195,0.0188,0.0228,0.0227,0.0152,0.0144,0.0136,0.0101,0.0104,0.0101,0.0098,-0.0003,-0.0003,-0.0004,0,0,0,0,0,0,0.0312,0.0308,0.0269,0.0282,0.0277,0.0254,0.0247,0.0243,0.0238,0.0192,0.0185,0.0228,0.0152,0.0142,0.0106,0.0098,0.0099,0.0095,-0.0002,-0.0003,-0.0004,0.0031,0,0,0,0,0,0,0.0313,0.0309,0.0312,0.0283,0.0276,0.0259,0.0247,0.0242,0.0236,0.0235,0.019,0.0182,0.0151,0.0112,0.0103,0.0092,0.0092,-0.0002,-0.0003,-0.0003,0.003,0.0031,0.0032,0,0,0,0,0,0.0315,0.0319,0.0312,0.0308,0.0279,0.0259,0.0254,0.0238,0.0236,0.0234,0.0203,0.0183,0.01,0.0109,0.0098,0.0086,-0.0001,-0.0002,-0.0003,0.003,0.0031,0.0032,0,0,0,0,0,0,0.0334,0.0316,0.0308,0.0305,0.0287,0.0256,0.0257,0.0244,0.0218,0.0219,0.0177,0.0166,0.0132,0.0104,0.0115,0.0053,0.0046,0.0042,0.0075,0.0076,0.0077,0.0092,0.0089,0,0,0,0,0,0.0341,0.0339,0.0317,0.0311,0.031,0.0285,0.0277,0.0264,0.0238,0.0228,0.0191,0.0152,0.0116,0.0094,0.0058,0.0024,-0.0008,0.0008,0.0009,0.0011,0.0015,-0.0048,-0.0052,-0.0007,-0.0007,-0.0007,0,0,0.0349,0.0335,0.0336,0.0316,0.0304,0.0298,0.0281,0.0273,0.0261,0.022,0.0192,0.0156,0.0109,0.0071,0.0053,0.0048,-0.0018,0.0009,0.0011,0.0014,-0.005,-0.0054,-0.0058,-0.0008,-0.0008,-0.0008,0,0,0.036,0.0352,0.0358,0.0342,0.0327,0.0313,0.0314,0.0285,0.0271,0.024,0.0206,0.0167,0.0112,0.0072,0.0047,0.0031,-0.0008,0.0019,0.0032,-0.0029,-0.0033,-0.0037,-0.0077,-0.0084,0.0016,0.0016,0.0016,0,0.037,0.0371,0.0355,0.035,0.0347,0.0323,0.0329,0.0304,0.0262,0.0248,0.0238,0.0148,0.0111,0.0058,0.0055,0.0033,-0.0,0.0033,-0.0027,-0.0032,-0.0037,-0.0076,-0.0085,0.0018,0.0018,0.0017,0.0017,0,0.0379,0.0383,0.0385,0.0374,0.0367,0.0366,0.0339,0.032,0.0303,0.0274,0.0224,0.0165,0.0113,0.0091,0.007,0.0016,0.0004,-0.0015,-0.0027,-0.0039,-0.008,-0.009,0.002,0.0019,0.0019,0.0019,0,0,0.0402,0.0397,0.0401,0.0408,0.0384,0.0383,0.0361,0.0341,0.0332,0.0275,0.0249,0.0178,0.0147,0.0116,0.0071,0.0018,-0.004,-0.0006,-0.001,-0.0038,-0.0162,-0.0148,-0.0158,-0.0073,-0.0074,-0.0076,-0.0174,0,0.0421,0.0436,0.0421,0.0437,0.0451,0.0418,0.0406,0.0376,0.0344,0.0306,0.0234,0.0199,0.0155,0.0137,0.007,-0.001,-0.0066,-0.001,-0.0152,-0.0156,-0.0137,-0.0169,-0.0081,-0.0182,-0.0184,-0.0186,-0.0187,0,0.044,0.0453,0.0482,0.0488,0.0492,0.0496,0.0484,0.0465,0.04,0.0373,0.0306,0.0249,0.0164,0.0134,-0.0026,0.0012,-0.0068,-0.0134,-0.014,-0.0145,-0.0161,-0.0172,-0.0206,-0.0205,-0.0203,-0.0202,-0.0201,0,0.0485,0.0496,0.0531,0.0528,0.0527,0.0538,0.054,0.0497,0.0486,0.0423,0.04,0.0284,0.0227,0.0104,-0.0038,-0.0031,-0.0212,-0.0223,-0.029,-0.029,-0.0286,-0.0281,-0.0336,-0.0336,-0.0336,-0.0336,-0.0336,0,0.0509,0.0538,0.0564,0.0582,0.0623,0.0604,0.0631,0.0603,0.0566,0.0545,0.0448,0.0388,0.0215,0.0085,-0.0034,-0.0195,-0.0218,-0.0292,-0.0321,-0.0268,-0.026,-0.0293,-0.0286,-0.034,-0.0339,-0.0338,-0.0337,0,0.0542,0.0558,0.0601,0.0632,0.0648,0.0682,0.0705,0.071,0.0672,0.0635,0.062,0.0461,0.0288,0.0112,-0.0097,-0.0185,-0.0333,-0.0384,-0.0304,-0.0326,-0.0367,-0.0358,-0.0462,-0.0462,-0.0463,-0.0463,-0.0463,0,0.0553,0.0582,0.0647,0.0678,0.07,0.0749,0.0778,0.0773,0.0772,0.0667,0.0645,0.0474,0.0349,0.0064,-0.0116,-0.0343,-0.0374,-0.043,-0.0408,-0.0366,-0.0384,-0.0374,-0.0364,-0.0464,-0.0464,-0.0464,-0.0464,0,0.0571,0.0605,0.0641,0.0714,0.0769,0.0813,0.0855,0.0858,0.0824,0.0798,0.0657,0.049,0.0282,0.0056,-0.0122,-0.0285,-0.0379,-0.0434,-0.0434,-0.0415,-0.037,-0.0385,-0.0375,-0.0466,-0.0466,-0.0465,-0.0465,0,0.0584,0.0616,0.0673,0.0731,0.0796,0.0836,0.0863,0.0851,0.0848,0.0744,0.0693,0.0464,0.0335,0.0084,-0.0084,-0.0239,-0.0274,-0.0294,-0.0302,-0.0302,-0.0224,-0.0142,-0.0199,0,0,0,0,0,0.0584,0.0622,0.0675,0.0742,0.0802,0.0841,0.0882,0.0896,0.0876,0.0793,0.0744,0.0552,0.0267,0.0132,-0.0022,-0.0094,-0.0299,-0.0276,-0.0325,-0.0473,-0.0472,-0.0407,0,0,0,0,0,0,0.0588,0.0643,0.0672,0.0733,0.0771,0.0842,0.0866,0.0856,0.0811,0.0761,0.0608,0.0542,0.0262,0.0352,-0.0021,-0.0071,-0.0114,-0.0407,-0.0409,-0.0474,-0.0473,-0.0472,-0.0404,0,0,0,0,0]}]]